Regional Weather Roundup
Issued by NWS

Home | Current Version | Previous Version | Graphics & Text | Print | Product List | Glossary Off
Versions: 1 2 3 4 5 6 7 8 9 10 11 12 13 14 15 16 17 18 19 20 21 22 23 24 25 26 27 28 29 30 31 32 33 34 35 36 37 38 39 40 41 42 43 44 45 46 47 48 49 50

000
ASUS43 KOAX 302302
RWRNE

WEATHER ROUNDUP FOR NEBRASKA
NATIONAL WEATHER SERVICE OMAHA NE
600 PM CDT SUN AUG 30 2015

NOTES: SATELLITE DATA IS BEING USED TO AUGMENT CLOUD COVER ABOVE
       12000 FEET.
       "FAIR" INDICATES FEW OR NO CLOUDS BELOW 12,000 FEET WITH NO
       SIGNIFICANT WEATHER AND/OR OBSTRUCTIONS TO VISIBILITY.

  * THESE STATIONS DO NOT REPORT WEATHER SUCH AS RAIN...SNOW OR FOG.

NEZ001>004-019>022-054>056-310000-
NEBRASKA PANHANDLE

CITY           SKY/WX    TMP DP  RH WIND       PRES   REMARKS
SCOTTSBLUFF    SUNNY     95  51  22 E10       29.84F HX  92
ALLIANCE       SUNNY     97  37  12 S12       29.84F HX  92
CHADRON        SUNNY    101  38  11 S7        29.75F HX  95
KIMBALL        MOSUNNY   93  38  14 CALM      29.91F
SIDNEY         SUNNY     97  34  11 S13G22    29.90F HX  91
$$

NEZ057>060-069>072-079>082-310000-
SOUTHWEST NEBRASKA

CITY           SKY/WX    TMP DP  RH WIND       PRES   REMARKS
NORTH PLATTE   SUNNY     91  41  17 S15       29.89F
IMPERIAL       SUNNY     93  38  14 S18G26    29.91F
LEXINGTON      SUNNY     87  61  40 SE16      29.93F
MC COOK        SUNNY     94  37  13 S17       29.91F HAZE
OGALLALA       SUNNY     93  43  17 S20G28    29.88F
$$

NEZ005>010-023>029-035>040-094-310000-
NORTH CENTRAL NEBRASKA

CITY           SKY/WX    TMP DP  RH WIND       PRES   REMARKS
VALENTINE      CLOUDY    95  43  16 S24G35    29.80F HX  91
AINSWORTH      MOSUNNY   91  48  23 S16G22    29.85F
BROKEN BOW     SUNNY     86  61  42 S16G25    29.92F
O`NEILL        SUNNY     83  67  58 S16G23    29.89F
ORD            SUNNY     84  63  49 S12G21    29.91F
THEDFORD       SUNNY     93  43  17 S24G30    29.89F
$$

NEZ041-046>049-061>064-073>077-083>087-310000-
SOUTH CENTRAL NEBRASKA

CITY           SKY/WX    TMP DP  RH WIND       PRES   REMARKS
GRAND ISLAND   SUNNY     79  63  57 S12       29.97F
AURORA         SUNNY     78  66  68 S9        29.97F
HASTINGS       SUNNY     79  63  57 SE9       29.97F
HEBRON         SUNNY     77  64  62 SE10      29.97F
HOLDREGE       SUNNY     81  58  44 S13       29.96F
KEARNEY *      SUNNY     81  61  50 SE13      29.96S
YORK           SUNNY     77  66  69 S12       29.97S
$$

NEZ011>018-030>034-042>045-310000-
NORTHEAST NEBRASKA

CITY           SKY/WX    TMP DP  RH WIND       PRES   REMARKS
NORFOLK        SUNNY     76  67  73 S16       29.94F
ALBION         SUNNY     76  63  63 S13G20    29.95F
BLAIR          FAIR      73  66  78 S7        29.97F
COLUMBUS *     SUNNY    N/A N/A N/A S8        29.96S
FREMONT        SUNNY     75  66  73 SE10      29.97F
TEKAMAH        SUNNY     74  67  78 S7        29.96F
$$

NEZ050>053-065>068-078-088>093-310000-
SOUTHEAST NEBRASKA

CITY           SKY/WX    TMP DP  RH WIND       PRES   REMARKS
LINCOLN        SUNNY     77  67  71 S12       29.98F
OMAHA EPPLEY   MOSUNNY   76  66  71 S15       29.97F
BEATRICE       SUNNY     77  67  70 SE8       29.98F
FALLS CITY     SUNNY     81  69  67 NE5       29.98F
NEBRASKA CITY  MOSUNNY   77  64  65 S7        29.99F
PLATTSMOUTH    SUNNY     75  65  72 SE8       29.99F
$$

NEZ044-045-051>053-067-310000-
OMAHA AREA

CITY           SKY/WX    TMP DP  RH WIND       PRES   REMARKS
EPPLEY FIELD   MOSUNNY   76  66  71 S15       29.97F
BLAIR          SUNNY     73  66  78 S7        29.97F
FREMONT        SUNNY     75  66  73 SE10      29.97F
MILLARD        SUNNY     76  68  76 SE9       29.98S
OFFUTT AFB     SUNNY     76  67  75 S8        29.97F
PLATTSMOUTH    SUNNY     75  65  72 SE8       29.99F
WAHOO          FAIR      76  68  76 S12       29.97S
$$


USA.gov is the U.S. government's official web portal to all federal, state and local government web resources and services.